| time (UTC) | temp F | wind direction | speed knots | gust knots | rain 1hr in | rain 24hr in | rain mn in | humidity % | barometer mb |
| 20260903132252 | 78 | 0.0 | 0.0 | 0.10 | 3.74 | 0.98 | 80 | ||
| 20260903131336 | 77 | 0.0 | 0.0 | 0.10 | 3.74 | 0.98 | 81 | ||
| 20260903130041 | 77 | 0.0 | 0.0 | 0.10 | 3.74 | 0.98 | 83 | ||
| 20260903125041 | 76 | 0.0 | 0.0 | 0.00 | 3.64 | 0.89 | 84 | ||
| 20260903124043 | 75 | 65 | 0.0 | 0.9 | 0.00 | 3.64 | 0.89 | 86 | |
| 20260903123219 | 74 | 71 | 0.0 | 0.9 | 0.00 | 3.64 | 0.89 | 87 | |
| 20260903122253 | 73 | 0.0 | 0.0 | 0.00 | 3.64 | 0.89 | 87 | ||
| 20260903121222 | 73 | 0.0 | 0.0 | 0.00 | 3.64 | 0.89 | 89 | ||
| 20260903120049 | 72 | 0.0 | 0.0 | 0.00 | 3.64 | 0.89 | 90 | ||
| 20260903115019 | 71 | 76 | 0.0 | 0.9 | 0.00 | 3.64 | 0.89 | 90 | |
| 20260903114331 | 70 | 0.0 | 0.0 | 0.10 | 3.64 | 0.89 | 89 | ||
| 20260903113158 | 70 | 0.0 | 0.0 | 0.10 | 3.64 | 0.89 | 89 | ||
| 20260903112231 | 70 | 0.0 | 0.0 | 0.10 | 3.64 | 0.89 | 89 | ||
| 20260903111324 | 70 | 0.0 | 0.0 | 0.10 | 3.64 | 0.89 | 89 | ||
| 20260903105100 | 71 | 0.0 | 0.0 | 0.10 | 3.74 | 0.89 | 89 | ||
| 20260903104617 | 70 | 0.0 | 0.0 | 0.00 | 3.64 | 0.79 | 88 | ||
| 20260903103103 | 71 | 0.0 | 0.0 | 0.00 | 3.64 | 0.79 | 88 | ||
| 20260903102136 | 71 | 0.0 | 0.0 | 0.00 | 3.84 | 0.79 | 88 | ||
| 20260903101519 | 71 | 0.0 | 0.0 | 0.00 | 3.84 | 0.79 | 88 | ||
| 20260903095625 | 71 | 0.0 | 0.0 | 0.00 | 3.84 | 0.79 | 88 | ||
| 20260903094658 | 71 | 0.0 | 0.0 | 0.00 | 3.94 | 0.79 | 88 | ||
| 20260903093730 | 71 | 0.0 | 0.0 | 0.00 | 3.94 | 0.79 | 88 | ||
| 20260903092803 | 71 | 0.0 | 0.0 | 0.00 | 3.94 | 0.79 | 88 | ||
| 20260903091250 | 71 | 0.0 | 0.0 | 0.10 | 3.94 | 0.79 | 86 | ||
| 20260903090323 | 71 | 0.0 | 0.0 | 0.20 | 3.94 | 0.79 | 86 | ||
| 20260903085048 | 72 | 0.0 | 0.0 | 0.30 | 3.94 | 0.79 | 85 | ||
| 20260903084151 | 72 | 0.0 | 0.0 | 0.30 | 3.94 | 0.79 | 85 | ||
| 20260903083224 | 72 | 0.0 | 0.0 | 0.39 | 4.04 | 0.79 | 85 | ||
| 20260903082433 | 72 | 115 | 0.0 | 0.9 | 0.39 | 4.04 | 0.79 | 85 | |
| 20260903081021 | 72 | 0.0 | 0.0 | 0.30 | 3.94 | 0.69 | 84 | ||
| 20260903080024 | 72 | 0.0 | 0.0 | 0.20 | 3.84 | 0.59 | 84 | ||
| 20260903075306 | 72 | 0.0 | 0.0 | 0.20 | 3.74 | 0.49 | 83 | ||
| 20260903074026 | 72 | 0.0 | 0.0 | 0.20 | 3.74 | 0.49 | 83 | ||
| 20260903073059 | 73 | 0.0 | 0.0 | 0.10 | 3.64 | 0.39 | 82 | ||
| 20260903072152 | 73 | 0.0 | 0.0 | 0.10 | 3.64 | 0.39 | 82 | ||
| 20260903070548 | 73 | 0.0 | 0.0 | 0.10 | 3.74 | 0.39 | 82 | ||
| 20260903065621 | 73 | 73 | 0.9 | 0.9 | 0.20 | 3.74 | 0.39 | 82 | |
| 20260903064653 | 73 | 0.0 | 0.0 | 0.10 | 3.64 | 0.30 | 81 | ||
| 20260903063520 | 73 | 0.0 | 0.0 | 0.10 | 3.64 | 0.30 | 80 | ||
| 20260903062553 | 73 | 0.0 | 0.0 | 0.10 | 3.64 | 0.30 | 79 | ||
| 20260903061523 | 74 | 0.0 | 0.0 | 0.10 | 3.74 | 0.30 | 79 | ||
| 20260903060557 | 74 | 0.0 | 0.0 | 0.10 | 3.74 | 0.30 | 79 | ||
| 20260903055558 | 74 | 0.0 | 0.0 | 0.00 | 3.64 | 0.20 | 78 | ||
| 20260903054632 | 75 | 0.0 | 0.0 | 0.10 | 3.64 | 0.20 | 78 | ||
| 20260903054012 | 74 | 0.0 | 0.0 | 0.10 | 3.64 | 0.20 | 78 | ||
| 20260903052634 | 74 | 0.0 | 0.0 | 0.10 | 3.64 | 0.20 | 77 | ||
| 20260903051707 | 75 | 108 | 0.0 | 0.9 | 0.10 | 3.64 | 0.20 | 77 | |
| 20260903050534 | 75 | 0.0 | 0.0 | 0.20 | 3.64 | 0.20 | 76 | ||
| 20260903050225 | 75 | 0.0 | 0.0 | 0.20 | 3.64 | 0.20 | 75 | ||
| 20260903044641 | 76 | 0.0 | 0.0 | 0.10 | 3.54 | 0.10 | 74 | ||
| 20260903043733 | 75 | 0.0 | 0.0 | 0.10 | 3.54 | 0.10 | 74 | ||
| 20260903042735 | 76 | 0.0 | 0.0 | 0.10 | 3.54 | 0.10 | 73 | ||
| 20260903041612 | 0 | 0.0 | 0.0 | 0.10 | 3.54 | 0.10 | |||
| 20260903040616 | 76 | 0.0 | 0.0 | 0.00 | 3.44 | 0.00 | 72 | ||
| 20260903035729 | 76 | 0.0 | 0.0 | 0.00 | 3.44 | 3.44 | 72 | ||
| 20260903034720 | 77 | 0.0 | 0.0 | 0.00 | 3.44 | 3.44 | 71 | ||
| 20260903033753 | 77 | 0.0 | 0.0 | 0.10 | 3.44 | 3.44 | 71 | ||
| 20260903032722 | 78 | 0.0 | 0.0 | 0.10 | 3.44 | 3.44 | 70 | ||
| 20260903031758 | 78 | 0.0 | 0.0 | 0.10 | 3.44 | 3.44 | 69 | ||
| 20260903030759 | 78 | 0.0 | 0.0 | 0.20 | 3.44 | 3.44 | 68 | ||
| 20260903025523 | 78 | 0.0 | 0.0 | 0.20 | 3.44 | 3.44 | 68 | ||
| 20260903024730 | 78 | 0.0 | 0.0 | 0.20 | 3.64 | 3.44 | 67 | ||
| 20260903023659 | 78 | 0.0 | 0.0 | 0.30 | 3.54 | 3.35 | 66 | ||
| 20260903022702 | 79 | 0.0 | 0.0 | 0.30 | 3.54 | 3.35 | 65 | ||
| 20260903021827 | 79 | 0.0 | 0.0 | 0.30 | 3.54 | 3.35 | 64 | ||
| 20260903020602 | 80 | 0.0 | 0.0 | 0.20 | 3.44 | 3.25 | 62 | ||
| 20260903015532 | 81 | 0.0 | 0.0 | 0.20 | 3.44 | 3.25 | 62 | ||
| 20260903014830 | 81 | 73 | 0.0 | 0.9 | 0.30 | 3.44 | 3.25 | 63 | |
| 20260903013605 | 81 | 0.0 | 0.0 | 0.10 | 3.25 | 3.05 | 60 | ||
| 20260903012814 | 81 | 0.0 | 0.0 | 0.10 | 3.25 | 3.05 | 59 | ||
| 20260903011539 | 81 | 0.0 | 0.0 | 0.20 | 3.25 | 3.05 | 57 | ||
| 20260903010610 | 82 | 0.0 | 0.0 | 0.20 | 3.25 | 3.05 | 56 | ||
| 20260903005838 | 82 | 0.0 | 0.0 | 0.30 | 3.25 | 3.05 | 55 | ||
| 20260903004543 | 83 | 0.0 | 0.0 | 0.20 | 3.35 | 2.95 | 53 | ||
| 20260903003647 | 84 | 0.0 | 0.0 | 0.30 | 3.44 | 2.95 | 51 | ||
| 20260903002751 | 85 | 0.0 | 0.0 | 0.30 | 3.44 | 2.95 | 49 | ||
| 20260903001650 | 86 | 71 | 0.9 | 0.9 | 0.30 | 3.35 | 2.85 | 48 | |
| 20260903000651 | 86 | 55 | 0.0 | 0.9 | 0.30 | 3.44 | 2.85 | 45 | |
| 20260902235826 | 87 | 66 | 0.0 | 0.9 | 0.30 | 3.35 | 2.76 | 45 | |
| 20260902234519 | 88 | 64 | 0.9 | 1.7 | 0.39 | 3.35 | 2.76 | 44 | |
| 20260902233520 | 88 | 58 | 0.9 | 1.7 | 0.30 | 3.35 | 2.66 | 42 | |
| 20260902232524 | 89 | 74 | 0.9 | 1.7 | 0.39 | 3.35 | 2.66 | 41 | |
| 20260902231557 | 89 | 8 | 0.0 | 0.9 | 0.30 | 3.44 | 2.56 | 40 | |
| 20260902230629 | 90 | 51 | 0.9 | 1.7 | 0.49 | 3.54 | 2.56 | 38 | |
| 20260902225559 | 91 | 38 | 1.7 | 2.6 | 0.39 | 3.44 | 2.46 | 36 | |
| 20260902224529 | 91 | 35 | 2.6 | 4.3 | 0.39 | 3.44 | 2.36 | 35 | |
| 20260902223603 | 92 | 50 | 0.9 | 2.6 | 0.39 | 3.64 | 2.36 | 33 | |
| 20260902222655 | 93 | 39 | 1.7 | 2.6 | 0.30 | 3.64 | 2.26 | 31 | |
| 20260902221533 | 95 | 52 | 2.6 | 4.3 | 0.30 | 3.84 | 2.26 | 28 | |
| 20260902220606 | 97 | 314 | 0.9 | 1.7 | 0.10 | 3.64 | 2.07 | 24 | |
| 20260902215536 | 97 | 59 | 1.7 | 2.6 | 0.20 | 3.64 | 2.07 | 23 | |
| 20260902214538 | 98 | 188 | 0.9 | 1.7 | 0.10 | 3.64 | 1.97 | 23 | |
| 20260902213610 | 98 | 293 | 1.7 | 3.5 | 0.10 | 3.74 | 1.97 | 23 | |
| 20260902212600 | 98 | 51 | 0.9 | 1.7 | 0.10 | 3.74 | 1.97 | 22 | |
| 20260902211542 | 99 | 99 | 0.9 | 2.6 | 0.10 | 3.74 | 1.97 | 22 | |
| 20260902210647 | 100 | 319 | 0.9 | 3.5 | 0.20 | 3.74 | 1.97 | 22 | |
| 20260902205547 | 100 | 58 | 0.9 | 1.7 | 0.10 | 3.64 | 1.87 | 22 | |
| 20260902204548 | 97 | 95 | 0.0 | 0.9 | 0.10 | 3.64 | 1.87 | 23 | |
| 20260902203548 | 98 | 17 | 2.6 | 4.3 | 0.10 | 3.64 | 1.87 | 23 | |
| 20260902202550 | 99 | 47 | 0.9 | 2.6 | 0.10 | 3.64 | 1.87 | 23 | |
| 20260902201551 | 97 | 137 | 0.9 | 2.6 | 0.30 | 3.64 | 1.87 | 24 | |
| 20260902200542 | 97 | 59 | 1.7 | 4.3 | 0.20 | 3.54 | 1.77 | 25 | |
| 20260902195626 | 96 | 26 | 1.7 | 4.3 | 0.20 | 3.54 | 1.77 | 27 | |
| 20260902194524 | 95 | 99 | 0.0 | 0.9 | 0.20 | 3.54 | 1.77 | 29 | |
| 20260902193525 | 98 | 290 | 0.0 | 0.9 | 0.20 | 3.54 | 1.77 | 27 | |
| 20260902192559 | 95 | 317 | 0.0 | 0.9 | 0.20 | 3.54 | 1.77 | 28 | |
| 20260902191528 | 98 | 58 | 0.9 | 1.7 | 0.10 | 3.44 | 1.57 | 25 | |
| 20260902190530 | 98 | 322 | 1.7 | 2.6 | 0.20 | 3.44 | 1.57 | 27 | |
| 20260902185532 | 97 | 257 | 2.6 | 4.3 | 0.20 | 3.64 | 1.57 | 28 | |
| 20260902184553 | 96 | 120 | 0.9 | 2.6 | 0.30 | 3.64 | 1.57 | 30 | |
| 20260902183536 | 96 | 227 | 0.9 | 2.6 | 0.30 | 3.64 | 1.57 | 32 | |
| 20260902182536 | 92 | 66 | 1.7 | 2.6 | 0.30 | 3.64 | 1.57 | 36 | |
| 20260902181538 | 92 | 80 | 0.0 | 0.9 | 0.20 | 3.54 | 1.48 | 37 | |
| 20260902180539 | 93 | 32 | 0.9 | 2.6 | 0.10 | 3.54 | 1.38 | 34 | |
| 20260902175724 | 94 | 110 | 0.0 | 0.9 | 0.10 | 3.54 | 1.38 | 34 | |
| 20260902174542 | 96 | 44 | 0.9 | 3.5 | 0.00 | 3.44 | 1.28 | 33 | |
| 20260902173616 | 95 | 191 | 0.9 | 1.7 | 0.00 | 3.44 | 1.28 | 33 | |
| 20260902172545 | 94 | 17 | 1.7 | 2.6 | 0.00 | 3.54 | 1.28 | 34 | |
| 20260902171547 | 94 | 172 | 1.7 | 2.6 | 0.00 | 3.74 | 1.28 | 33 | |
| 20260902170620 | 94 | 119 | 0.9 | 1.7 | 0.10 | 3.74 | 1.28 | 33 | |
| 20260902165621 | 94 | 92 | 0.0 | 0.9 | 0.10 | 3.74 | 1.28 | 34 | |
| 20260902164520 | 93 | 222 | 0.9 | 2.6 | 0.10 | 3.74 | 1.28 | 37 | |
| 20260902163624 | 92 | 215 | 0.9 | 2.6 | 0.10 | 3.74 | 1.28 | 38 | |
| 20260902162543 | 92 | 129 | 0.9 | 1.7 | 0.20 | 3.84 | 1.28 | 40 | |
| 20260902161524 | 92 | 74 | 0.9 | 1.7 | 0.30 | 3.84 | 1.28 | 40 | |
| 20260902160527 | 91 | 326 | 0.0 | 1.7 | 0.30 | 3.74 | 1.18 | 42 | |
| 20260902155527 | 91 | 152 | 1.7 | 2.6 | 0.30 | 3.84 | 1.18 | 47 | |
| 20260902154529 | 91 | 42 | 0.9 | 1.7 | 0.30 | 3.84 | 1.18 | 49 | |
| 20260902153602 | 88 | 0.0 | 0.0 | 0.30 | 3.94 | 1.18 | 54 | ||
| 20260902152532 | 87 | 0.0 | 0.0 | 0.20 | 4.04 | 1.08 | 55 | ||
| 20260902151533 | 86 | 148 | 0.0 | 1.7 | 0.20 | 4.04 | 0.98 | 58 | |
| 20260902150536 | 85 | 92 | 0.9 | 1.7 | 0.10 | 3.94 | 0.89 | 59 | |
| 20260902145537 | 84 | 221 | 0.9 | 1.7 | 0.10 | 3.94 | 0.89 | 61 | |
| 20260902144538 | 83 | 87 | 0.9 | 2.6 | 0.10 | 4.04 | 0.89 | 64 | |
| 20260902143601 | 83 | 189 | 0.9 | 2.6 | 0.10 | 4.04 | 0.89 | 65 | |
| 20260902142543 | 81 | 14 | 0.9 | 2.6 | 0.20 | 4.04 | 0.89 | 66 | |
| 20260902141615 | 81 | 0.0 | 0.0 | 0.10 | 3.94 | 0.79 | 69 | ||
| 20260902140617 | 0 | 0.0 | 0.0 | 0.10 | 3.94 | 0.79 | |||
| 20260902135650 | 79 | 0.0 | 0.0 | 0.10 | 3.94 | 0.79 | 73 | ||
| 20260902134618 | 79 | 0.0 | 0.0 | 0.10 | 3.94 | 0.79 | 76 | ||
| 20260902133620 | 78 | 0.0 | 0.0 | 0.10 | 3.94 | 0.79 | 78 |